SCP
0 0 0 0 0 0 0 0 0 0 0 0 1 1 2 4 5 5 5 5 4 5 4 3 3 3 4 4 5 6 7 6 4 1 1 1 1 1 1 1 1 1 1 1
0 0 0 0 0 0 0 0 0 0 0 0 1 1 2 4 6 6 5 5 4 4 4 3 2 3 3 5 6 8 8 7 4 2 1 1 1 1 1 1 1 1 1 1
0 0 0 0 0 0 0 0 0 0 0 1 1 1 2 5 8 8 8 6 5 3 2 2 2 2 3 5 8 9 9 6 3 2 1 1 1 1 1 1 1 1 1 1
0 0 0 0 0 0 0 0 0 0 0 1 2 2 3 6 11 13 11 8 4 2 1 1 1 2 2 4 7 8 8 6 3 2 2 2 2 2 2 1 1 1 1 1
0 0 0 0 0 0 0 0 0 0 1 2 3 4 4 7 13 15 12 7 3 1 1 1 1 2 2 3 5 6 6 4 3 2 2 2 2 2 2 1 1 1 1 1
0 0 0 0 0 0 0 0 1 1 1 2 5 5 5 9 14 15 10 5 2 1 1 1 2 2 3 3 4 5 5 4 2 2 2 2 2 2 2 2 2 1 1 2
0 0 0 0 0 1 0 0 1 1 1 3 4 5 6 9 13 12 9 5 2 1 1 1 2 3 3 3 4 5 5 3 2 2 2 2 2 2 2 2 2 2 2 2
0 0 0 0 0 0 0 1 1 1 1 2 3 4 5 8 10 10 8 5 2 1 1 2 2 3 3 3 3 4 4 3 2 2 2 2 2 2 2 2 2 2 2 2
0 0 0 0 0 0 0 1 1 1 1 1 2 3 4 6 7 7 6 3 2 2 2 2 3 3 3 3 3 3 3 2 2 2 2 3 3 2 2 3 3 3 2 2
0 0 0 0 0 0 0 1 1 2 2 1 1 2 3 5 5 6 5 4 4 4 4 3 3 3 4 3 3 3 2 2 2 2 2 2 3 2 3 3 3 3 2 2
0 0 0 0 0 0 0 1 2 2 2 2 1 2 3 4 4 5 6 6 6 6 6 5 3 3 3 3 3 3 2 2 2 2 2 2 2 2 3 3 3 3 2 2
0 0 0 0 0 0 0 1 2 3 3 3 2 1 2 3 3 3 4 5 6 6 6 5 3 3 3 3 3 3 2 2 2 2 3 3 3 2 2 2 2 1 2 1
0 0 0 0 0 0 0 1 1 2 3 3 2 1 2 2 2 2 3 3 3 4 4 3 3 2 3 3 3 3 3 2 3 3 4 5 4 3 2 1 1 0 0 1
0 0 0 0 0 0 0 0 1 1 2 2 1 2 2 2 2 2 2 2 2 2 3 2 2 2 2 3 3 3 3 3 3 4 5 6 5 3 2 1 0 0 0 0
0 0 0 0 0 0 0 0 0 0 1 1 1 1 2 2 2 2 2 2 2 2 2 2 2 2 2 2 2 2 3 3 4 4 5 6 5 3 2 1 1 0 0 0
0 0 0 0 0 0 0 0 0 0 1 1 1 1 1 1 1 2 2 2 2 1 1 1 1 1 1 1 1 1 2 3 3 5 5 5 4 2 2 1 1 0 0 0
0 0 0 0 0 0 0 0 0 0 0 1 1 1 1 1 1 1 2 2 2 1 1 1 1 1 1 1 1 1 2 3 4 4 4 4 3 2 2 1 1 0 0 0
0 0 0 0 0 0 0 0 0 0 0 1 1 0 0 0 0 1 1 1 1 1 1 1 1 1 1 1 1 1 2 3 4 4 4 3 3 3 2 2 1 0 0 0
0 0 0 0 0 0 1 0 0 0 0 1 1 0 0 0 0 0 0 1 1 1 1 1 1 1 1 2 2 2 2 3 3 4 4 3 3 3 2 2 1 0 0 0
0 0 0 0 0 0 0 0 0 0 1 1 0 0 0 0 0 0 0 0 1 1 1 1 1 1 1 2 2 2 3 3 3 3 4 3 3 2 2 1 1 0 0 0
0 0 0 0 0 0 0 0 0 0 0 0 0 0 0 0 0 0 0 0 0 0 1 1 1 1 1 1 2 3 3 3 3 3 3 3 2 2 2 1 1 0 0 0
0 0 0 0 1 1 1 0 0 0 0 0 0 0 0 0 0 0 0 0 0 0 0 1 1 1 0 1 2 3 3 3 3 3 3 2 2 2 2 1 1 0 0 0
0 0 0 0 1 1 1 1 0 0 0 1 1 0 0 0 0 1 0 0 0 0 0 1 1 0 0 1 1 2 2 2 2 2 2 2 2 2 1 1 1 1 0 0
0 0 0 0 1 1 1 1 1 1 1 1 1 1 1 1 0 0 0 0 0 0 0 0 0 0 0 1 1 1 1 2 2 1 1 1 1 1 1 1 1 1 1 0
0 0 0 0 0 1 1 1 0 0 0 0 0 0 1 1 0 0 0 0 0 0 0 0 0 0 0 1 1 1 1 1 1 1 1 1 1 1 1 1 1 1 1 0
0 0 0 0 0 0 0 0 0 0 0 0 0 0 0 0 0 0 0 0 0 0 0 0 0 0 1 1 1 1 1 1 1 1 1 1 1 1 1 1 1 0 0 1
0 0 0 0 0 0 0 0 0 0 0 0 0 0 0 0 0 0 0 0 0 0 0 0 0 0 1 2 2 1 1 1 1 1 0 0 1 1 1 1 1 0 1 1
Wind_Speed
3 3 3 4 5 7 6 8 9 8 8 8 6 5 4 3 3 3 3 3 4 4 4 4 4 4 5 5 4 5 5 5 5 4 4 4 4 4 3 4 4 3 2 2
1 1 2 3 5 7 6 5 5 4 6 6 3 2 2 3 4 4 4 4 4 4 4 5 5 5 5 5 5 5 5 4 3 3 3 3 3 3 3 3 3 3 2 2
2 2 1 4 5 6 5 4 6 7 8 2 2 4 5 5 5 5 5 4 5 5 5 5 5 5 5 5 5 5 4 3 3 3 3 3 3 3 3 3 3 3 3 3
2 2 5 8 3 4 4 4 5 4 4 4 5 4 4 4 6 5 4 4 4 4 4 4 4 4 4 5 5 5 4 3 3 3 3 2 3 3 3 3 3 3 3 3
4 3 5 6 2 4 4 4 4 5 3 2 2 2 1 2 3 5 6 5 5 5 4 4 5 5 4 5 5 5 4 4 4 4 4 3 3 4 3 3 2 2 2 2
4 4 7 7 3 2 3 4 4 5 5 5 5 2 5 3 2 3 2 2 3 3 3 4 5 6 6 5 5 5 5 4 4 4 5 5 4 3 2 3 3 2 2 2
4 4 8 7 3 3 4 7 3 5 6 7 6 5 3 2 2 2 2 2 2 3 3 4 5 6 6 5 6 5 4 3 3 4 4 3 2 2 2 2 2 2 2 2
4 4 8 3 2 5 7 3 2 4 5 6 4 1 2 3 2 2 2 2 3 3 2 2 5 6 5 5 5 3 4 3 3 3 3 3 3 2 2 2 2 1 1 2
8 8 5 3 4 4 3 2 3 3 3 4 3 2 2 2 2 2 2 2 2 3 3 1 2 5 5 4 3 4 4 3 3 3 2 2 3 3 2 2 2 2 1 2
3 6 5 4 3 2 2 3 3 3 4 4 4 3 3 3 2 2 2 2 2 3 3 1 1 1 2 2 4 5 4 3 3 3 2 2 2 2 2 2 2 2 2 2
4 6 5 4 3 3 3 2 1 2 3 5 5 3 3 3 3 3 2 2 3 3 3 2 1 1 1 2 4 4 4 3 3 2 2 2 2 1 2 2 3 3 3 2
6 6 5 7 5 3 2 2 3 3 2 3 4 4 3 3 3 3 3 3 2 2 3 2 1 1 1 3 4 5 3 3 2 2 2 2 2 1 2 1 0 1 2 2
6 5 5 6 5 4 3 4 3 4 5 4 3 4 4 3 3 3 3 3 3 3 3 2 2 2 2 3 4 5 5 4 3 3 3 3 3 2 1 2 3 2 0 1
5 3 4 5 4 4 3 3 2 2 3 5 4 4 3 3 3 4 4 3 3 3 2 2 2 2 3 4 4 4 4 4 4 3 3 3 3 2 2 2 0 1 2 1
5 5 5 4 3 3 2 2 2 2 2 3 4 4 5 5 5 5 4 4 3 2 2 2 2 3 2 3 4 4 4 3 3 3 3 3 2 2 2 2 1 0 1 2
4 3 3 3 3 3 2 3 4 4 3 3 4 4 5 5 4 4 4 4 4 4 3 3 3 3 3 3 3 3 3 4 4 4 3 3 3 3 2 2 1 1 1 1
4 4 4 4 4 4 4 5 5 5 4 4 5 4 4 4 3 3 3 3 4 4 4 4 4 3 2 3 4 3 2 3 5 4 3 3 3 3 3 3 2 2 2 2
7 7 6 6 6 5 5 4 4 4 5 5 4 4 5 5 5 4 3 2 2 1 2 3 3 2 2 3 3 3 3 3 3 3 3 3 3 3 2 2 2 2 1 1
5 5 5 5 5 5 5 4 4 4 4 5 5 5 5 5 5 4 3 3 3 3 3 2 2 2 2 3 3 3 3 3 3 3 3 3 2 2 2 2 2 1 1 1
4 3 3 3 3 4 4 4 3 3 4 4 5 4 3 3 3 4 3 3 4 3 3 2 2 2 2 3 3 3 3 3 3 3 3 2 2 2 2 2 2 1 1 1
3 2 2 1 2 2 3 4 4 4 4 5 5 5 4 3 3 4 3 2 3 2 2 3 2 2 2 2 3 3 3 3 3 3 3 2 2 2 2 2 2 2 2 2
2 1 2 2 2 1 2 2 3 4 4 4 4 4 4 3 3 3 3 3 3 2 2 3 3 3 3 3 3 3 3 3 3 3 2 2 2 2 2 2 2 2 2 2
2 1 1 2 2 2 2 2 3 4 4 5 4 4 4 4 4 4 3 3 2 3 3 3 4 5 4 3 3 3 3 3 3 3 3 3 3 3 3 3 2 2 2 2
2 1 1 1 2 2 2 2 2 3 3 3 3 4 3 2 2 2 2 2 3 3 3 3 5 5 4 3 3 3 3 3 2 2 2 2 2 2 2 2 2 2 2 2
2 1 1 2 2 1 1 2 2 2 3 2 2 2 2 2 3 3 2 3 3 3 2 3 4 4 3 2 2 3 3 2 2 2 2 2 2 2 2 2 3 3 2 2
1 1 0 1 2 1 2 2 2 2 2 2 1 1 1 1 2 2 2 3 3 3 2 2 3 3 3 2 2 2 2 2 2 1 2 2 2 2 2 2 2 2 2 2
1 1 1 1 0 1 2 2 2 2 3 3 2 2 2 2 2 2 3 3 3 2 2 2 2 2 2 2 2 1 1 1 1 1 1 1 1 1 2 2 2 2 2 2
Wind_Direction
220 219 178 192 193 181 182 183 184 217 220 242 230 209 201 171 150 144 143 146 150 156 165 167 164 170 174 175 170 167 168 180 194 194 192 193 195 194 193 193 196 196 192 198
268 289 196 220 217 200 205 192 202 205 244 245 227 159 151 154 157 163 171 176 172 168 167 174 173 177 175 175 174 165 174 193 195 183 185 194 198 192 187 189 182 176 188 202
235 298 53 254 225 200 199 198 178 203 230 197 184 196 190 178 171 177 185 189 188 185 187 189 186 176 181 180 167 166 180 189 186 182 188 196 188 175 179 178 176 189 199 203
144 110 217 241 247 190 185 220 208 222 229 196 204 213 198 175 174 181 189 196 203 199 195 192 177 164 166 158 160 167 177 185 183 180 187 181 170 185 188 181 189 201 207 209
134 182 260 291 250 171 173 247 216 198 198 179 132 72 319 206 184 190 193 199 202 196 188 176 164 154 147 156 159 164 178 188 189 186 186 184 189 198 191 184 198 209 210 211
137 168 223 242 253 187 124 264 238 181 173 158 125 147 246 227 199 198 186 184 191 175 159 163 161 152 146 165 168 184 194 196 190 186 188 192 197 193 185 185 201 203 218 227
160 203 254 257 276 124 167 237 227 179 175 167 179 205 220 189 188 179 167 168 159 144 152 171 157 150 156 171 192 198 186 178 183 190 192 187 177 177 175 181 188 201 221 238
157 190 248 269 137 180 217 240 188 180 179 175 182 168 151 155 153 139 117 116 123 116 124 152 152 153 167 190 196 171 165 170 178 182 185 168 159 168 165 167 178 204 231 261
189 212 237 241 221 238 199 201 210 186 185 163 157 163 153 141 128 122 121 115 104 114 105 96 149 161 175 197 165 151 152 167 173 167 164 159 160 161 156 160 175 201 224 246
249 265 269 274 271 274 225 219 216 186 168 159 161 159 153 145 137 132 129 126 116 116 111 101 107 138 180 175 152 150 158 169 165 159 156 147 150 161 167 175 183 197 218 235
254 276 304 298 277 268 286 267 212 174 167 163 152 159 168 165 166 161 145 137 141 148 152 172 139 118 156 165 153 157 163 166 163 157 152 145 141 161 185 192 194 199 218 225
228 236 224 259 266 258 241 233 187 161 160 163 163 168 167 179 184 169 158 151 149 160 159 165 134 159 196 169 157 154 159 169 165 157 157 154 149 89 38 60 50 218 217 213
235 250 241 261 270 256 232 232 210 181 177 176 182 173 164 170 177 161 151 149 175 188 180 174 171 198 207 175 161 161 168 175 173 170 168 169 168 158 128 26 35 33 358 219
244 243 270 268 262 264 242 244 222 191 182 174 181 173 165 160 163 164 164 177 189 181 176 177 183 215 210 175 165 169 169 171 171 177 176 177 179 173 168 166 169 345 346 326
255 231 232 255 272 278 249 184 162 188 184 177 172 170 170 172 180 179 169 166 161 162 183 183 197 229 204 175 171 171 169 173 173 168 169 169 171 165 164 175 179 233 331 343
265 248 236 239 239 233 200 182 183 201 197 186 183 186 184 180 173 166 166 164 163 185 205 206 221 222 191 172 170 174 179 175 163 160 161 163 167 170 176 185 192 213 245 273
245 251 247 250 243 237 225 216 204 200 198 193 195 188 165 154 154 170 183 185 187 200 208 212 225 216 184 169 169 175 173 171 163 161 167 172 176 184 191 192 202 218 245 255
233 233 229 225 225 229 235 222 200 194 197 197 180 167 166 171 187 201 191 170 169 208 233 227 214 196 183 172 164 167 173 178 178 179 174 176 179 183 188 194 206 221 255 270
252 244 239 234 226 212 211 210 208 204 188 171 170 181 188 190 191 189 169 163 182 220 249 238 202 186 190 188 165 165 174 175 172 168 165 165 167 172 179 189 207 220 227 247
266 252 238 233 218 201 202 199 193 192 177 163 158 158 167 186 180 171 170 191 210 221 221 206 188 182 183 180 166 166 172 173 169 165 160 165 174 183 189 191 197 212 219 229
272 245 222 226 229 213 199 187 182 184 172 158 162 174 182 183 171 164 164 213 255 236 204 193 184 179 179 179 170 166 164 163 162 164 169 177 188 196 202 201 203 215 224 238
298 237 218 218 204 203 199 182 180 173 161 161 166 167 164 166 168 180 198 218 233 207 190 192 188 185 184 177 173 168 165 165 167 167 172 180 188 197 206 209 209 219 233 241
324 279 231 212 195 194 177 170 169 162 165 170 170 172 177 183 178 180 216 230 209 200 191 191 187 181 177 166 165 166 170 172 173 177 185 192 199 201 205 212 215 218 236 251
328 302 247 174 127 132 152 172 158 157 157 160 172 177 172 172 191 207 209 200 187 182 184 187 184 179 171 165 162 166 172 174 176 182 189 196 202 201 205 209 217 227 234 243
336 356 53 109 130 164 180 152 130 134 139 147 158 167 176 178 188 203 188 172 168 169 169 173 168 165 160 155 165 174 177 180 181 181 190 197 207 209 210 212 215 220 225 234
341 351 230 204 192 173 157 147 150 157 153 153 165 187 188 184 181 163 152 150 146 151 152 147 145 148 144 146 161 172 177 174 171 183 201 204 203 208 218 224 223 228 234 238
354 12 30 27 30 143 155 158 161 175 178 172 174 178 171 161 154 148 137 136 138 138 136 134 134 140 142 146 152 155 166 174 170 171 184 188 190 207 220 223 230 238 244 245